Year,Month,Day,Hour,Minute,Value (Times are PST for temperature in C)
2016,04,11,08,34,10.80
2016,04,11,08,35,10.80
2016,04,11,08,36,10.80
2016,04,11,08,37,10.90
2016,04,11,08,38,10.90
2016,04,11,08,39,10.90
2016,04,11,08,40,10.90
2016,04,11,08,41,10.90
2016,04,11,08,42,10.90
2016,04,11,08,43,10.90
2016,04,11,08,44,10.90
2016,04,11,08,45,10.90
2016,04,11,08,46,11.00
2016,04,11,08,47,11.10
2016,04,11,08,48,11.10
2016,04,11,08,49,11.10
2016,04,11,08,50,11.10
2016,04,11,08,51,11.10
2016,04,11,08,52,11.20
2016,04,11,08,53,11.20
2016,04,11,08,54,11.20
2016,04,11,08,55,11.20
2016,04,11,08,56,11.30
2016,04,11,08,57,11.30
2016,04,11,08,58,11.20
2016,04,11,08,59,11.20
2016,04,11,09,00,11.20
2016,04,11,09,01,11.30
2016,04,11,09,02,11.30
2016,04,11,09,03,11.30
2016,04,11,09,04,11.30
2016,04,11,09,05,11.40
2016,04,11,09,06,11.40
2016,04,11,09,07,11.40
2016,04,11,09,08,11.40
2016,04,11,09,09,11.40
2016,04,11,09,10,11.60
2016,04,11,09,11,11.60
2016,04,11,09,12,11.60
2016,04,11,09,13,11.60
2016,04,11,09,14,11.60
2016,04,11,09,15,11.60
2016,04,11,09,16,11.60
2016,04,11,09,17,11.60
2016,04,11,09,18,11.60
2016,04,11,09,19,11.60
2016,04,11,09,20,11.60
2016,04,11,09,21,11.50
2016,04,11,09,22,11.40
2016,04,11,09,23,11.30
2016,04,11,09,24,11.30
2016,04,11,09,25,11.40
2016,04,11,09,26,11.40
2016,04,11,09,27,11.40
2016,04,11,09,28,11.40
2016,04,11,09,29,11.40
2016,04,11,09,30,11.40
2016,04,11,09,31,11.50
2016,04,11,09,32,11.60
2016,04,11,09,33,11.60
2016,04,11,09,34,11.60
2016,04,11,09,35,11.60
2016,04,11,09,36,11.60
2016,04,11,09,37,11.60
2016,04,11,09,38,11.60
2016,04,11,09,39,11.60
2016,04,11,09,40,11.60
2016,04,11,09,41,11.70
2016,04,11,09,42,11.70
2016,04,11,09,43,11.70
2016,04,11,09,44,11.80
2016,04,11,09,45,11.80
2016,04,11,09,46,11.90
2016,04,11,09,47,12.00
2016,04,11,09,48,12.00
2016,04,11,09,49,12.10
2016,04,11,09,50,12.10
2016,04,11,09,51,12.10
2016,04,11,09,52,12.20
2016,04,11,09,53,12.30
2016,04,11,09,54,12.30
2016,04,11,09,55,12.30
2016,04,11,09,56,12.30
2016,04,11,09,57,12.40
2016,04,11,09,58,12.50
2016,04,11,09,59,12.60
2016,04,11,10,00,12.60
2016,04,11,10,01,12.70
2016,04,11,10,02,12.70
2016,04,11,10,03,12.70
2016,04,11,10,04,12.60
2016,04,11,10,05,12.60
2016,04,11,10,06,12.60
2016,04,11,10,07,12.60
2016,04,11,10,08,12.60
2016,04,11,10,09,12.70
2016,04,11,10,10,12.70
2016,04,11,10,11,12.80
2016,04,11,10,12,12.80
2016,04,11,10,13,12.90
2016,04,11,10,14,13.00
2016,04,11,10,15,13.00
2016,04,11,10,16,13.00
2016,04,11,10,17,13.00
2016,04,11,10,18,12.90
2016,04,11,10,19,12.90
2016,04,11,10,20,12.90
2016,04,11,10,21,13.00
2016,04,11,10,22,13.10
2016,04,11,10,23,13.20
2016,04,11,10,24,13.20
2016,04,11,10,25,13.30
2016,04,11,10,26,13.40
2016,04,11,10,27,13.50
2016,04,11,10,28,13.50
2016,04,11,10,29,13.50
2016,04,11,10,30,13.60
2016,04,11,10,31,13.60
2016,04,11,10,32,13.50
2016,04,11,10,33,13.30
2016,04,11,10,34,13.10
2016,04,11,10,35,13.00
2016,04,11,10,36,12.90
2016,04,11,10,37,12.90
2016,04,11,10,38,12.90
2016,04,11,10,39,12.90
2016,04,11,10,40,13.00
2016,04,11,10,41,12.90
2016,04,11,10,42,12.90
2016,04,11,10,43,13.00
2016,04,11,10,44,13.10
2016,04,11,10,45,13.20
2016,04,11,10,46,13.20
2016,04,11,10,47,13.30
2016,04,11,10,48,13.20
2016,04,11,10,49,13.20
2016,04,11,10,50,13.20
2016,04,11,10,51,13.10
2016,04,11,10,52,13.10
2016,04,11,10,53,13.10
2016,04,11,10,54,13.10
2016,04,11,10,55,13.10
2016,04,11,10,56,13.10
2016,04,11,10,57,13.20
2016,04,11,10,58,13.20
2016,04,11,10,59,13.30
2016,04,11,11,00,13.30
2016,04,11,11,01,13.50
2016,04,11,11,02,13.60
2016,04,11,11,03,13.60
2016,04,11,11,04,13.70
2016,04,11,11,05,13.70
2016,04,11,11,06,13.70
2016,04,11,11,07,13.70
2016,04,11,11,08,13.80
2016,04,11,11,09,13.80
2016,04,11,11,10,13.80
2016,04,11,11,11,13.80
2016,04,11,11,12,13.80
2016,04,11,11,13,13.80
2016,04,11,11,14,13.80
2016,04,11,11,15,13.80
2016,04,11,11,16,13.90
2016,04,11,11,17,13.90
2016,04,11,11,18,14.00
2016,04,11,11,19,14.00
2016,04,11,11,20,14.00
2016,04,11,11,21,14.00
2016,04,11,11,22,14.00
2016,04,11,11,23,14.00
2016,04,11,11,24,14.00
2016,04,11,11,25,13.90
2016,04,11,11,26,13.90
2016,04,11,11,27,13.90
2016,04,11,11,28,13.90
2016,04,11,11,29,13.90
2016,04,11,11,30,13.90
2016,04,11,11,31,14.00
2016,04,11,11,32,14.00
2016,04,11,11,33,14.00
2016,04,11,11,34,14.00
2016,04,11,11,35,14.00
2016,04,11,11,36,14.00
2016,04,11,11,37,14.10
2016,04,11,11,38,14.10
2016,04,11,11,39,14.20
2016,04,11,11,40,14.20
2016,04,11,11,41,14.20
2016,04,11,11,42,14.10
2016,04,11,11,43,14.10
2016,04,11,11,44,14.20
2016,04,11,11,45,14.20
2016,04,11,11,46,14.10
2016,04,11,11,47,14.10
2016,04,11,11,48,14.00
2016,04,11,11,49,14.00
2016,04,11,11,50,14.00
2016,04,11,11,51,14.00
2016,04,11,11,52,14.00
2016,04,11,11,53,14.10
2016,04,11,11,54,14.10
2016,04,11,11,55,14.10
2016,04,11,11,56,14.20
2016,04,11,11,57,14.20
2016,04,11,11,58,14.30
2016,04,11,11,59,14.30
2016,04,11,12,00,14.30
2016,04,11,12,01,14.30
2016,04,11,12,02,14.30
2016,04,11,12,03,14.20
2016,04,11,12,04,14.20
2016,04,11,12,05,14.20
2016,04,11,12,06,14.20
2016,04,11,12,07,14.20
2016,04,11,12,08,14.20
2016,04,11,12,09,14.20
2016,04,11,12,10,14.10
2016,04,11,12,11,14.10
2016,04,11,12,12,14.10
2016,04,11,12,13,14.10
2016,04,11,12,14,14.10
2016,04,11,12,15,14.10
2016,04,11,12,16,14.10
2016,04,11,12,17,14.00
2016,04,11,12,18,14.00
2016,04,11,12,19,14.00
2016,04,11,12,20,14.00
2016,04,11,12,21,14.00
2016,04,11,12,22,14.00
2016,04,11,12,23,14.00
2016,04,11,12,24,14.10
2016,04,11,12,25,14.10
2016,04,11,12,26,14.20
2016,04,11,12,27,14.20
2016,04,11,12,28,14.20
2016,04,11,12,29,14.20
2016,04,11,12,30,14.20
2016,04,11,12,31,14.20
2016,04,11,12,32,14.20
2016,04,11,12,33,14.20
2016,04,11,12,34,14.20
2016,04,11,12,35,14.20
2016,04,11,12,36,14.30
2016,04,11,12,37,14.20
2016,04,11,12,38,14.20
2016,04,11,12,39,14.20
2016,04,11,12,40,14.20
2016,04,11,12,41,14.20
2016,04,11,12,42,14.20
2016,04,11,12,43,14.20
2016,04,11,12,44,14.20
2016,04,11,12,45,14.20
2016,04,11,12,46,14.20
2016,04,11,12,47,14.30
2016,04,11,12,48,14.30
2016,04,11,12,49,14.20
2016,04,11,12,50,14.30
2016,04,11,12,51,14.30
2016,04,11,12,52,14.30
2016,04,11,12,53,14.30
2016,04,11,12,54,14.40
2016,04,11,12,55,14.40
2016,04,11,12,56,14.30
2016,04,11,12,57,14.30
2016,04,11,12,58,14.20
2016,04,11,12,59,14.20
2016,04,11,13,00,14.30
2016,04,11,13,01,14.30
2016,04,11,13,02,14.30
2016,04,11,13,03,14.20
2016,04,11,13,04,14.20
2016,04,11,13,05,14.20
2016,04,11,13,06,14.20
2016,04,11,13,07,14.30
2016,04,11,13,08,14.40
2016,04,11,13,09,14.40
2016,04,11,13,10,14.50
2016,04,11,13,11,14.50
2016,04,11,13,12,14.50
2016,04,11,13,13,14.60
2016,04,11,13,14,14.60
2016,04,11,13,15,14.70
2016,04,11,13,16,14.70
2016,04,11,13,17,14.80
2016,04,11,13,18,14.80
2016,04,11,13,19,14.80
2016,04,11,13,20,14.90
2016,04,11,13,21,15.00
2016,04,11,13,22,15.00
2016,04,11,13,23,15.10
2016,04,11,13,24,15.20
2016,04,11,13,25,15.30
2016,04,11,13,26,15.30
2016,04,11,13,27,15.30
2016,04,11,13,28,15.30
2016,04,11,13,29,15.50
2016,04,11,13,30,15.50
2016,04,11,13,31,15.60
2016,04,11,13,32,15.70
2016,04,11,13,33,15.80
2016,04,11,13,34,15.70
2016,04,11,13,35,15.50
2016,04,11,13,36,15.40
2016,04,11,13,37,15.30
2016,04,11,13,38,15.30
2016,04,11,13,39,15.30
2016,04,11,13,40,15.30
2016,04,11,13,41,15.30
2016,04,11,13,42,15.30
2016,04,11,13,43,15.30
2016,04,11,13,44,15.30
2016,04,11,13,45,15.30
2016,04,11,13,46,15.40
2016,04,11,13,47,15.50
2016,04,11,13,48,15.50
2016,04,11,13,49,15.50
2016,04,11,13,50,15.50
2016,04,11,13,51,15.50
2016,04,11,13,52,15.20
2016,04,11,13,53,14.90
2016,04,11,13,54,14.70
2016,04,11,13,55,14.50
2016,04,11,13,56,14.40
2016,04,11,13,57,14.50
2016,04,11,13,58,14.30
2016,04,11,13,59,14.10
2016,04,11,14,00,13.90
2016,04,11,14,01,13.80
2016,04,11,14,02,13.70
2016,04,11,14,03,13.70
2016,04,11,14,04,13.70
2016,04,11,14,05,13.70
2016,04,11,14,06,13.80
2016,04,11,14,07,13.80
2016,04,11,14,08,13.80
2016,04,11,14,09,13.90
2016,04,11,14,10,14.00
2016,04,11,14,11,14.10
2016,04,11,14,12,14.10
2016,04,11,14,13,14.20
2016,04,11,14,14,14.20
2016,04,11,14,15,14.10
2016,04,11,14,16,14.20
2016,04,11,14,17,14.30
2016,04,11,14,18,14.40
2016,04,11,14,19,14.50
2016,04,11,14,20,14.50
2016,04,11,14,21,14.70
2016,04,11,14,22,14.80
2016,04,11,14,23,14.90
2016,04,11,14,24,15.00
2016,04,11,14,25,15.00
2016,04,11,14,26,15.00
2016,04,11,14,27,15.00
2016,04,11,14,28,14.90
2016,04,11,14,29,14.90
2016,04,11,14,30,14.80
2016,04,11,14,31,14.60
2016,04,11,14,32,14.60
2016,04,11,14,33,14.60
2016,04,11,14,34,14.60
2016,04,11,14,35,14.80
2016,04,11,14,36,14.80
2016,04,11,14,37,14.80
2016,04,11,14,38,14.80
2016,04,11,14,39,14.90
2016,04,11,14,40,14.90
2016,04,11,14,41,14.80
2016,04,11,14,42,14.80
2016,04,11,14,43,14.60
2016,04,11,14,44,14.50
2016,04,11,14,45,14.50
2016,04,11,14,46,14.50
2016,04,11,14,47,14.50
2016,04,11,14,48,14.40
2016,04,11,14,49,14.40
2016,04,11,14,50,14.40
2016,04,11,14,51,14.50
2016,04,11,14,52,14.50
2016,04,11,14,53,14.40
2016,04,11,14,54,14.40
2016,04,11,14,55,14.50
2016,04,11,14,56,14.50
2016,04,11,14,57,14.60
2016,04,11,14,58,14.70
2016,04,11,14,59,14.70
2016,04,11,15,00,14.80
2016,04,11,15,01,14.80
2016,04,11,15,02,14.80
2016,04,11,15,03,14.80
2016,04,11,15,04,14.80
2016,04,11,15,05,14.70
2016,04,11,15,06,14.70
2016,04,11,15,07,14.70
2016,04,11,15,08,14.60
2016,04,11,15,09,14.60
2016,04,11,15,10,14.50
2016,04,11,15,11,14.50
2016,04,11,15,12,14.50
2016,04,11,15,13,14.50
2016,04,11,15,14,14.50
2016,04,11,15,15,14.50
2016,04,11,15,16,14.60
2016,04,11,15,17,14.50
2016,04,11,15,18,14.50
2016,04,11,15,19,14.50
2016,04,11,15,20,14.50
2016,04,11,15,21,14.40
2016,04,11,15,22,14.20
2016,04,11,15,23,14.20
2016,04,11,15,24,14.20
2016,04,11,15,25,14.10
2016,04,11,15,26,14.10
2016,04,11,15,27,14.10
2016,04,11,15,28,14.00
2016,04,11,15,29,13.90
2016,04,11,15,30,13.90
2016,04,11,15,31,13.90
2016,04,11,15,32,13.90
2016,04,11,15,33,13.80
2016,04,11,15,34,13.80
2016,04,11,15,35,13.80
2016,04,11,15,36,13.90
2016,04,11,15,37,13.90
2016,04,11,15,38,13.90
2016,04,11,15,39,13.90
2016,04,11,15,40,14.00
2016,04,11,15,41,14.00
2016,04,11,15,42,14.00
2016,04,11,15,43,13.90
2016,04,11,15,44,13.90
2016,04,11,15,45,13.80
2016,04,11,15,46,13.80
2016,04,11,15,47,13.80
2016,04,11,15,48,13.80
2016,04,11,15,49,13.90
2016,04,11,15,50,13.90
2016,04,11,15,51,13.90
2016,04,11,15,52,13.80
2016,04,11,15,53,13.70
2016,04,11,15,54,13.70
2016,04,11,15,55,13.70
2016,04,11,15,56,13.70
2016,04,11,15,57,13.70
2016,04,11,15,58,13.70
2016,04,11,15,59,13.70
2016,04,11,16,00,13.70
2016,04,11,16,01,13.70
2016,04,11,16,02,13.80
2016,04,11,16,03,13.70
2016,04,11,16,04,13.70
2016,04,11,16,05,13.70
2016,04,11,16,06,13.70
2016,04,11,16,07,13.80
2016,04,11,16,08,13.80
2016,04,11,16,09,13.80
2016,04,11,16,10,13.90
2016,04,11,16,11,13.90
2016,04,11,16,12,13.80
2016,04,11,16,13,13.80
2016,04,11,16,14,13.70
2016,04,11,16,15,13.70
2016,04,11,16,16,13.70
2016,04,11,16,17,13.70
2016,04,11,16,18,13.70
2016,04,11,16,19,13.70
2016,04,11,16,20,13.60
2016,04,11,16,21,13.50
2016,04,11,16,22,13.50
2016,04,11,16,23,13.40
2016,04,11,16,24,13.40
2016,04,11,16,25,13.30
2016,04,11,16,26,13.20
2016,04,11,16,27,13.10
2016,04,11,16,28,13.10
2016,04,11,16,29,13.00
2016,04,11,16,30,12.90
2016,04,11,16,31,12.90
2016,04,11,16,32,12.90
2016,04,11,16,33,12.90
2016,04,11,16,34,12.90
2016,04,11,16,35,12.90
2016,04,11,16,36,12.90
2016,04,11,16,37,13.00
2016,04,11,16,38,13.00
2016,04,11,16,39,13.00
2016,04,11,16,40,13.00
2016,04,11,16,41,13.00
2016,04,11,16,42,13.00
2016,04,11,16,43,13.00
2016,04,11,16,44,13.00
2016,04,11,16,45,13.10
2016,04,11,16,46,13.00
2016,04,11,16,47,12.90
2016,04,11,16,48,12.90
2016,04,11,16,49,12.90
2016,04,11,16,50,12.80
2016,04,11,16,51,12.80
2016,04,11,16,52,12.80
2016,04,11,16,53,12.80
2016,04,11,16,54,12.90
2016,04,11,16,55,12.80
2016,04,11,16,56,12.80
2016,04,11,16,57,12.80
2016,04,11,16,58,12.90
2016,04,11,16,59,12.90
2016,04,11,17,00,12.90
2016,04,11,17,01,12.90
2016,04,11,17,02,12.90
2016,04,11,17,03,12.90
2016,04,11,17,04,12.90
2016,04,11,17,05,12.80
2016,04,11,17,06,12.80
2016,04,11,17,07,12.80
2016,04,11,17,08,12.80
2016,04,11,17,09,12.80
2016,04,11,17,10,12.80
2016,04,11,17,11,12.80
2016,04,11,17,12,12.80
2016,04,11,17,13,12.80
2016,04,11,17,14,12.80
2016,04,11,17,15,12.70
2016,04,11,17,16,12.70
2016,04,11,17,17,12.60
2016,04,11,17,18,12.60
2016,04,11,17,19,12.50
2016,04,11,17,20,12.50
2016,04,11,17,21,12.40
2016,04,11,17,22,12.40
2016,04,11,17,23,12.40
2016,04,11,17,24,12.40
2016,04,11,17,25,12.30
2016,04,11,17,26,12.30
2016,04,11,17,27,12.30
2016,04,11,17,28,12.30
2016,04,11,17,29,12.30
2016,04,11,17,30,12.20
2016,04,11,17,31,12.20
2016,04,11,17,32,12.10
2016,04,11,17,33,12.00
2016,04,11,17,34,11.90
2016,04,11,17,35,11.80
2016,04,11,17,36,11.80
2016,04,11,17,37,11.80
2016,04,11,17,38,11.80
2016,04,11,17,39,11.80
2016,04,11,17,40,11.80
2016,04,11,17,41,11.80
2016,04,11,17,42,11.80
2016,04,11,17,43,11.80
2016,04,11,17,44,11.80
2016,04,11,17,45,11.80
2016,04,11,17,46,11.80
2016,04,11,17,47,11.80
2016,04,11,17,48,11.80
2016,04,11,17,49,11.80
2016,04,11,17,50,11.80
2016,04,11,17,51,11.80
2016,04,11,17,52,11.80
2016,04,11,17,53,11.80
2016,04,11,17,54,11.80
2016,04,11,17,55,11.80
2016,04,11,17,56,11.70
2016,04,11,17,57,11.70
2016,04,11,17,58,11.70
2016,04,11,17,59,11.70
2016,04,11,18,00,11.70
2016,04,11,18,01,11.70
2016,04,11,18,02,11.60
2016,04,11,18,03,11.60
2016,04,11,18,04,11.60
2016,04,11,18,05,11.60
2016,04,11,18,06,11.40
2016,04,11,18,07,11.40
2016,04,11,18,08,11.40
2016,04,11,18,09,11.40
2016,04,11,18,10,11.40
2016,04,11,18,11,11.40
2016,04,11,18,12,11.40
2016,04,11,18,13,11.40
2016,04,11,18,14,11.40
2016,04,11,18,15,11.40
2016,04,11,18,16,11.40
2016,04,11,18,17,11.40
2016,04,11,18,18,11.40
2016,04,11,18,19,11.40
2016,04,11,18,20,11.40
2016,04,11,18,21,11.30
2016,04,11,18,22,11.30
2016,04,11,18,23,11.30
2016,04,11,18,24,11.30
2016,04,11,18,25,11.30
2016,04,11,18,26,11.20
2016,04,11,18,27,11.20
2016,04,11,18,28,11.20
2016,04,11,18,29,11.20
2016,04,11,18,30,11.10
2016,04,11,18,31,11.10
2016,04,11,18,32,11.10
2016,04,11,18,33,11.10
2016,04,11,18,34,11.00
2016,04,11,18,35,11.00
2016,04,11,18,36,11.10
2016,04,11,18,37,11.10
2016,04,11,18,38,11.10
2016,04,11,18,39,11.10
2016,04,11,18,40,11.10
2016,04,11,18,41,11.10
2016,04,11,18,42,11.10
2016,04,11,18,43,11.10
2016,04,11,18,44,11.10
2016,04,11,18,45,11.10
2016,04,11,18,46,11.10
2016,04,11,18,47,11.10
2016,04,11,18,48,11.10
2016,04,11,18,49,11.00
2016,04,11,18,50,10.90
2016,04,11,18,51,10.90
2016,04,11,18,52,10.90
2016,04,11,18,53,10.90
2016,04,11,18,54,11.00
2016,04,11,18,55,11.00
2016,04,11,18,56,10.90
2016,04,11,18,57,10.90
2016,04,11,18,58,10.90
2016,04,11,18,59,10.90
2016,04,11,19,00,10.90
2016,04,11,19,01,11.10
2016,04,11,19,02,11.10
2016,04,11,19,03,11.10
2016,04,11,19,04,11.10
2016,04,11,19,05,11.10
2016,04,11,19,06,11.10
2016,04,11,19,07,10.90
2016,04,11,19,08,10.90
2016,04,11,19,09,10.90
2016,04,11,19,10,10.90
2016,04,11,19,11,10.90
2016,04,11,19,12,10.90
2016,04,11,19,13,10.90
2016,04,11,19,14,10.90
2016,04,11,19,15,10.90
2016,04,11,19,16,10.90
2016,04,11,19,17,10.90
2016,04,11,19,18,10.90
2016,04,11,19,19,10.90
2016,04,11,19,20,10.90
2016,04,11,19,21,10.90
